GW1854 Weather Reports


time (UTC)temp
F
wind
direction
speed
knots
gust
knots
rain 1hr
in
rain 24hr
in
rain mn
in
humidity
%
barometer
mb
20260504050124 49 338 8.7 20.0 0.00 0.00 0.00 42 1015.0
20260504045123 49 323 7.0 16.5 0.00 0.00 0.00 42 1014.9
20260504044123 49 322 5.2 16.5 0.00 0.00 0.00 41 1014.9
20260504043144 49 311 3.5 13.0 0.00 0.00 0.00 41 1014.8
20260504042125 50 334 5.2 15.6 0.00 0.00 0.00 41 1014.7
20260504041123 50 334 8.7 21.7 0.00 0.00 0.00 40 1014.5
20260504040123 51 323 10.4 24.3 0.00 0.00 0.00 39 1014.3
20260504035125 51 341 10.4 27.8 0.00 0.00 0.00 38 1014.0
20260504034144 51 316 9.6 24.3 0.00 0.00 0.00 37 1014.0
20260504033123 52 339 7.0 24.3 0.00 0.00 0.00 36 1013.9
20260504032123 52 304 8.7 25.2 0.00 0.00 0.00 35 1013.8
20260504031123 53 330 7.8 23.5 0.00 0.00 0.00 35 1013.5
20260504030123 53 323 11.3 25.2 0.00 0.00 0.00 35 1013.4
20260504025123 53 328 14.8 32.2 0.00 0.00 0.00 34 1013.3
20260504024125 54 330 9.6 32.2 0.00 0.00 0.00 34 1013.3
20260504023144 54 341 12.2 35.6 0.00 0.00 0.00 36 1013.0
20260504022123 54 315 3.5 15.6 0.00 0.00 0.00 39 1013.2
20260504021123 55 347 6.1 24.3 0.00 0.00 0.00 40 1013.0
20260504020123 55 352 8.7 23.5 0.00 0.00 0.00 40 1013.2
20260504015124 55 355 12.2 29.5 0.00 0.00 0.00 40 1013.0
20260504014123 55 336 7.8 24.3 0.00 0.00 0.00 38 1013.0
20260504013146 56 356 10.4 24.3 0.00 0.00 0.00 37 1013.0
20260504012123 57 350 8.7 29.5 0.00 0.00 0.00 36 1012.9
20260504011123 57 12 12.2 33.9 0.00 0.00 0.00 35 1012.7
20260504010144 57 317 7.0 27.8 0.00 0.00 0.00 36 1012.4
20260504005123 57 314 13.9 34.8 0.00 0.00 0.00 36 1012.4
20260504004124 57 318 13.9 30.4 0.00 0.00 0.00 38 1012.4
20260504003123 57 307 11.3 26.9 0.00 0.00 0.00 39 1012.4
20260504002123 58 316 8.7 23.5 0.00 0.00 0.00 39 1012.2
20260504001124 58 348 10.4 32.2 0.00 0.00 0.00 39 1012.2
20260504000123 57 316 8.7 24.3 0.00 0.00 0.00 39 1012.2
20260503235124 57 335 10.4 27.8 0.00 0.00 0.00 39 1012.2
20260503234123 58 299 7.8 23.5 0.00 0.00 0.00 38 1012.2
20260503233144 58 350 12.2 27.8 0.00 0.00 0.00 38 1011.9
20260503232122 58 333 13.9 31.3 0.00 0.00 0.00 38 1011.8
20260503231122 59 345 11.3 29.5 0.00 0.00 0.00 37 1011.9
20260503230145 59 342 13.9 34.8 0.00 0.00 0.00 36 1011.8
20260503225123 59 343 13.0 36.5 0.00 0.00 0.00 36 1011.5
20260503224123 60 313 13.9 33.0 0.00 0.00 0.00 35 1011.5
20260503223122 60 309 17.4 37.4 0.00 0.00 0.00 33 1011.5
20260503222123 60 299 13.9 31.3 0.00 0.00 0.00 34 1011.4
20260503221123 60 303 15.6 37.4 0.00 0.00 0.00 34 1011.5
20260503220122 60 285 16.5 36.5 0.00 0.00 0.00 34 1011.2
20260503215125 60 290 16.5 36.5 0.00 0.00 0.00 34 1011.3
20260503214122 60 289 16.5 40.8 0.00 0.00 0.00 34 1011.3
20260503213123 60 296 18.2 40.0 0.00 0.00 0.00 34 1011.3
20260503212123 60 302 17.4 44.3 0.00 0.00 0.00 34 1011.3
20260503211123 61 300 13.0 32.2 0.00 0.00 0.00 34 1011.3
20260503210122 60 333 12.2 33.0 0.00 0.00 0.00 34 1011.3
20260503205123 60 317 14.8 34.8 0.00 0.00 0.00 34 1011.3
20260503204123 61 329 12.2 29.5 0.00 0.00 0.00 34 1011.3
20260503203123 60 311 13.0 32.2 0.00 0.00 0.00 34 1011.3
20260503202124 61 315 13.0 32.2 0.00 0.00 0.00 34 1011.3
20260503201125 60 338 15.6 36.5 0.00 0.00 0.00 33 1011.2
20260503200123 61 310 12.2 33.0 0.00 0.00 0.00 33 1011.0
20260503195125 61 328 16.5 36.5 0.00 0.00 0.00 33 1010.9
20260503194124 62 349 11.3 32.2 0.00 0.00 0.00 32 1010.9
20260503193122 62 316 15.6 33.9 0.00 0.00 0.00 32 1010.8
20260503192122 62 325 14.8 33.9 0.00 0.00 0.00 32 1010.9
20260503191122 63 311 15.6 36.5 0.00 0.00 0.00 31 1011.0
20260503190125 63 303 16.5 40.0 0.00 0.00 0.00 32 1010.9
20260503185123 63 303 16.5 36.5 0.00 0.00 0.00 32 1010.8
20260503184124 63 309 15.6 29.5 0.00 0.00 0.00 32 1010.8
20260503183122 64 315 13.9 32.2 0.00 0.00 0.00 32 1010.8
20260503182122 65 294 13.9 38.2 0.00 0.00 0.00 32 1010.9
20260503181144 65 292 9.6 26.1 0.00 0.00 0.00 33 1010.9
20260503180122 64 312 11.3 24.3 0.00 0.00 0.00 34 1011.0
20260503175124 63 310 14.8 32.2 0.00 0.00 0.00 34 1011.0
20260503174123 64 301 13.9 32.2 0.00 0.00 0.00 33 1011.0
20260503173122 63 304 14.8 36.5 0.00 0.00 0.00 32 1010.8
20260503172123 64 291 10.4 27.8 0.00 0.00 0.00 32 1010.9
20260503171122 65 305 11.3 26.9 0.00 0.00 0.00 32 1010.8
20260503170124 64 308 13.0 28.7 0.00 0.00 0.00 33 1010.7
20260503160122 61 312 12.2 26.1 0.00 0.00 0.00 41 1011.0
20260503150144 60 298 7.8 20.9 0.00 0.00 0.00 43 1010.5
20260503140123 58 277 12.2 26.1 0.00 0.00 0.00 44 1010.2
20260503131122 55 270 5.2 13.9 0.00 0.00 0.00 46 1010.0
20260503130122 55 268 7.0 14.8 0.00 0.00 0.00 46 1010.0
20260503120122 53 268 7.0 17.4 0.00 0.00 0.00 47 1010.2
20260503110123 52 265 2.6 10.4 0.00 0.00 0.00 47 1010.0
20260503100122 52 247 0.0 6.1 0.00 0.00 0.00 46 1010.5
20260503090122 53 248 0.0 0.0 0.00 0.00 0.00 44 1010.5
20260503081122 57 281 5.2 13.0 0.00 0.00 0.00 39 1010.9
20260503080122 57 272 4.3 11.3 0.00 0.00 0.00 38 1010.9
20260503072122 58 269 5.2 11.3 0.00 0.00 0.00 37 1010.9
20260503071124 58 270 4.3 11.3 0.00 0.00 0.00 37 1011.0
20260503070143 59 268 4.3 11.3 0.00 0.00 0.00 37 1010.9
20260503060122 59 246 0.9 7.0 0.00 0.00 0.00 39 1010.5
20260503054122 60 251 0.9 6.1 0.00 0.00 0.00 38 1010.5
20260503053122 60 230 0.9 4.3 0.00 0.00 0.00 38 1010.5